Location: Unspecified
(48.7670°N, 0.0000°E)
Time: 05:38:42
(UTC+00:00)

Vanguard 2 Rocket - Pass Details

Date: 23 June 2019
Orbit: 554 x 3326 km, 32.9° (Epoch: 12 October)

Event Time Altitude Azimuth Distance (km) Brightness Sun altitude
Rises 03:06:06 0° 268° (W) 5,772 10.6 -7.0°
Reaches altitude 10° 03:10:27 10° 257° (WSW) 5,156 10.2 -6.5°
Maximum altitude 03:22:15 26° 209° (SSW) 4,725 10.0 -5.1°
Drops below altitude 10° 03:36:35 10° 164° (SSE) 6,278 10.9 -3.4°
Sets 03:42:49 0° 153° (SSE) 7,243 11.3 -2.7°
